This is the latest recevied weather packets stored in our database for station/object K4CRS-13. If no packets are shown the sender has not sent any weather packets the latest 10 day(s).
| Time | Temp. | Humidity | Pressure | Rain* | Wind** | Luminosity | Snow |
|---|---|---|---|---|---|---|---|
| 1787504238 | 30° C | 63% | 1052.8 hPa | 0 mm | - | 763 W/m² | - |
| 1787503934 | 30° C | 61% | 1052.9 hPa | 0 mm | - | 760 W/m² | - |
| 1787503634 | 30° C | 61% | 1053 hPa | 0 mm | - | 764 W/m² | - |
| 1787503331 | 29.44° C | 63% | 1052.9 hPa | 0 mm | - | 756 W/m² | - |
| 1787503026 | 29.44° C | 64% | 1052.4 hPa | 0 mm | - | 752 W/m² | - |
| 1787502722 | 28.89° C | 67% | 1052.8 hPa | 0 mm | - | 745 W/m² | - |
| 1787502422 | 30° C | 65% | 1052.9 hPa | 0 mm | - | 737 W/m² | - |
| 1787502121 | 30° C | 63% | 1052.6 hPa | 0 mm | - | 724 W/m² | - |
| 1787501817 | 29.44° C | 65% | 1052.9 hPa | 0 mm | - | 713 W/m² | - |
| 1787501513 | 28.89° C | 65% | 1053 hPa | 0 mm | - | 707 W/m² | - |
| 1787501209 | 28.89° C | 68% | 1052.6 hPa | 0 mm | - | 704 W/m² | - |
| 1787500905 | 28.89° C | 65% | 1052.6 hPa | 0 mm | - | 693 W/m² | - |
| 1787500601 | 28.33° C | 68% | 1052.9 hPa | 0 mm | - | 682 W/m² | - |
| 1787500296 | 28.89° C | 66% | 1052.8 hPa | 0 mm | - | 672 W/m² | - |
| 1787499995 | 28.89° C | 66% | 1052.9 hPa | 0 mm | - | 664 W/m² | - |
| 1787499691 | 28.33° C | 68% | 1052.5 hPa | 0 mm | - | 651 W/m² | - |
| 1787499391 | 28.33° C | 68% | 1052.9 hPa | 0 mm | - | 639 W/m² | - |
| 1787499087 | 28.33° C | 71% | 1052.9 hPa | 0 mm | - | 630 W/m² | - |
| 1787498784 | 28.33° C | 72% | 1052.9 hPa | 0 mm | - | 613 W/m² | - |
| 1787498480 | 27.78° C | 71% | 1052.9 hPa | 0 mm | - | 602 W/m² | - |
| 1787498176 | 27.78° C | 74% | 1053.1 hPa | 0 mm | - | 592 W/m² | - |
| 1787497872 | 27.22° C | 73% | 1053 hPa | 0 mm | - | 577 W/m² | - |
| 1787497568 | 27.22° C | 75% | 1052.9 hPa | 0 mm | - | 558 W/m² | - |
| 1787497262 | 26.67° C | 75% | 1052.8 hPa | 0 mm | - | 551 W/m² | - |
| 1787496962 | 26.67° C | 74% | 1052.8 hPa | 0 mm | - | 537 W/m² | - |
* Rain latest hour (hover to see other rain measurements)
** Current wind speed in m/s (hover to see current wind gust speed)